Location: Brienzwiler
(46.7508°N, 8.1014°E)
Time: 01:34:40
(UTC+00:00)

In-Cosmos 22 Rocket - Pass Details

Date: 05 July 2020
Orbit: 791 x 887 km, 81.2° (Epoch: 11 August)

Event Time Altitude Azimuth Distance (km) Brightness Sun altitude
Exits shadow 21:29:55 24° 158° (SSE) 1,605 5.0 -15.3°
Maximum altitude 21:32:54 50° 95° (E) 1,007 4.4 -15.5°
Drops below altitude 10° 21:38:02 10° 21° (NNE) 2,372 7.1 -15.9°
Sets 21:40:28 0° 16° (NNE) 3,312 8.0 -16.1°
